RH
20 19 22 24 20 18 19 24 39 31 18 14 13 16 15 17 20 19 19 25 28 32 38 40 44 45 43 47 46 47 45 43 45 48 38 41 46 47 49 53 50 51 52 55
40 27 25 29 23 21 18 16 17 16 17 12 13 16 18 17 16 18 20 20 26 30 33 40 42 42 44 44 47 48 47 49 42 41 40 45 47 50 53 56 52 51 53 54
62 34 35 59 36 25 20 17 19 27 22 16 16 14 20 21 20 21 24 23 25 30 34 38 45 50 48 41 47 48 50 43 43 38 41 45 41 42 45 51 55 57 58 57
80 74 74 23 16 15 19 16 14 13 15 14 22 20 18 18 22 24 22 26 27 28 33 37 41 48 48 36 45 52 46 39 39 39 37 37 43 47 52 53 57 60 60 59
98 61 33 23 16 19 22 21 17 18 18 16 18 22 22 23 25 28 30 27 27 30 33 38 41 41 39 41 44 42 36 41 39 35 36 42 47 50 52 54 59 60 56 60
76 91 86 36 22 19 19 45 22 24 26 26 22 54 36 32 29 30 25 26 28 30 34 38 39 40 43 36 38 43 42 40 40 38 43 47 49 53 56 56 53 56 61 64
79 96 64 24 22 23 50 56 30 29 30 32 38 38 37 36 35 30 27 30 34 36 38 37 35 38 47 52 57 50 46 45 43 50 54 47 52 54 56 59 67 74 76 74
86 100 90 22 25 40 45 38 33 33 35 43 41 38 36 31 30 32 31 35 34 37 40 47 47 52 59 61 57 58 60 62 58 49 46 41 56 58 60 65 76 79 98 91
60 66 36 25 29 25 31 35 36 38 34 37 41 39 36 36 37 37 34 32 32 44 55 66 65 64 66 68 61 59 62 56 56 52 48 45 58 64 66 68 84 88 93 95
50 26 24 24 22 24 30 39 36 37 39 42 47 49 44 42 42 36 36 36 45 61 80 85 68 62 54 49 54 59 68 68 59 57 58 61 57 61 66 89 92 92 92 93
40 31 30 29 41 45 44 46 46 44 46 47 47 47 43 41 46 53 63 72 82 83 74 66 52 48 53 56 61 64 61 55 62 71 72 68 60 62 79 78 87 91 92 93
71 49 52 52 48 46 50 49 48 48 50 50 47 49 52 63 68 72 75 69 69 64 58 51 56 55 52 51 52 59 62 68 86 91 88 73 65 69 68 75 79 78 78 88
51 49 50 50 48 52 64 62 59 59 58 61 59 60 63 69 71 82 77 74 71 67 62 56 56 57 55 58 65 77 81 83 84 84 84 83 88 80 83 80 80 84 84 82
47 50 58 49 60 58 62 64 66 64 65 68 70 74 80 84 80 76 73 65 55 51 53 54 55 57 58 58 66 79 80 80 77 79 89 92 87 88 88 86 88 85 88 83
48 46 56 59 59 61 59 60 65 69 71 72 68 71 68 67 60 56 54 53 54 54 49 45 52 53 45 62 58 70 72 74 79 88 92 92 91 87 84 84 87 88 89 88
61 60 62 66 65 62 60 62 68 69 60 63 68 68 53 48 48 49 47 61 77 79 74 94 97 80 70 57 53 56 60 75 82 84 91 90 86 87 82 82 82 85 85 85
81 83 74 70 66 60 54 59 65 65 61 66 82 91 80 84 76 79 74 84 97 98 95 94 90 66 77 68 64 64 68 69 82 92 93 97 92 86 86 88 94 91 87 88
68 64 63 60 60 69 66 62 64 71 81 92 95 95 96 96 94 89 94 92 96 94 92 85 86 85 81 70 71 76 79 79 80 86 92 93 90 87 87 88 94 94 89 87
58 60 59 56 56 55 59 69 79 88 95 98 96 95 92 90 87 88 81 86 89 86 94 81 82 74 73 76 85 87 94 97 94 85 86 95 91 89 89 90 90 93 94 92
55 53 54 66 71 77 86 90 87 82 84 90 93 92 89 88 95 92 91 87 75 84 72 72 70 68 66 68 76 73 77 83 86 91 98 97 94 91 93 92 91 96 98 95
55 63 78 84 90 95 98 94 89 76 76 94 93 94 93 89 88 88 78 70 72 70 71 71 68 69 73 76 77 79 82 86 88 88 97 99 99 98 94 91 97 99 98 97
67 88 97 91 81 78 73 72 78 90 89 92 93 91 87 68 76 75 80 78 72 76 75 71 83 84 78 84 78 88 90 93 92 90 90 90 97 99 96 95 94 96 95 96
80 84 86 86 83 71 66 67 91 87 87 88 90 84 77 71 69 76 81 68 72 79 74 83 84 81 82 88 88 89 88 93 94 95 96 97 98 98 98 97 96 96 95 94
78 78 76 69 71 62 60 53 52 58 81 76 85 90 74 80 82 71 73 78 80 85 83 86 88 83 84 88 89 89 91 92 92 93 94 94 96 95 95 96 95 94 92 89
72 67 63 71 59 57 51 47 48 52 57 58 63 61 68 69 85 81 82 83 82 82 84 82 85 85 86 88 89 89 90 92 93 94 93 94 94 95 94 94 94 91 89 88
66 63 58 55 54 51 54 52 62 63 63 75 74 81 81 80 80 80 82 83 83 83 85 86 88 90 88 86 89 90 90 90 91 91 93 93 94 94 94 94 90 88 89 88
63 67 57 59 52 53 63 65 74 76 76 88 84 83 78 83 84 81 84 86 86 88 87 87 88 89 89 89 88 87 88 89 90 92 93 93 94 94 94 93 90 89 87 90
Wind_Speed
14 16 1 11 8 8 12 11 11 10 13 11 10 9 10 4 3 6 7 9 10 9 10 12 12 11 10 10 10 7 6 8 6 8 4 1 2 2 2 2 2 3 6 5
8 9 10 12 13 12 14 13 13 15 13 10 7 6 7 8 7 5 5 9 5 6 6 11 12 12 11 11 11 8 7 6 1 5 2 4 3 3 3 5 5 5 4 5
2 7 8 6 10 16 15 14 11 11 9 8 11 10 8 5 6 4 4 7 7 4 5 6 8 8 11 11 10 8 5 4 11 2 1 2 2 4 4 5 4 4 5 4
1 2 1 8 4 6 6 7 9 9 11 12 13 11 7 7 4 5 7 3 4 5 5 3 4 8 8 9 9 6 5 1 3 3 4 3 2 4 6 4 5 5 3 4
3 4 8 11 0 2 2 4 11 10 10 10 9 8 5 8 9 8 8 8 7 5 3 2 6 10 9 9 6 7 6 4 6 2 4 4 4 6 4 4 5 4 3 4
3 2 4 1 5 2 2 2 8 8 7 8 10 4 4 10 9 4 7 4 5 5 0 3 11 11 8 8 8 10 8 9 10 5 5 6 6 4 4 6 5 3 4 4
4 2 6 2 5 1 2 4 3 5 6 7 6 7 5 4 5 10 8 7 7 9 12 12 12 13 13 12 14 10 6 3 7 7 8 6 4 3 4 5 5 4 2 2
2 2 6 6 5 1 4 4 7 6 7 6 6 7 8 9 10 6 9 12 14 17 16 17 16 15 14 13 10 9 7 6 7 8 7 7 4 6 3 5 5 3 1 2
8 5 4 4 4 3 5 3 4 6 8 9 9 9 10 9 8 8 9 12 16 15 16 15 14 12 12 9 4 1 5 6 7 8 8 8 5 4 4 4 1 3 2 2
3 3 5 4 2 3 9 9 9 9 9 10 9 10 11 8 10 12 16 14 14 14 13 11 9 8 5 4 3 4 5 7 8 7 4 4 4 5 5 3 2 3 3 3
5 6 4 10 13 11 9 11 12 11 13 14 10 10 14 15 16 15 15 14 12 10 9 6 5 4 3 6 3 6 7 6 5 3 5 6 6 5 1 3 3 3 3 3
1 9 4 10 11 11 12 12 12 11 14 16 17 15 17 15 13 12 10 9 8 6 6 5 4 6 4 5 6 5 5 4 3 2 3 5 6 4 7 8 8 10 11 5
4 5 3 12 12 16 14 13 13 13 14 12 13 12 13 11 9 8 7 6 4 2 2 4 4 5 5 5 2 2 4 5 4 5 4 2 2 5 7 6 10 12 12 12
5 2 9 7 10 14 14 13 13 14 13 12 12 11 10 9 6 5 4 2 2 4 5 5 5 6 4 5 6 7 8 9 7 6 3 1 3 4 5 8 8 7 9 15
6 10 15 15 13 12 11 11 13 12 11 10 9 7 6 5 4 2 2 2 3 5 6 6 7 8 8 5 6 6 7 7 6 5 4 4 4 6 7 7 8 8 6 5
13 13 12 13 12 12 12 11 11 8 8 9 9 9 9 9 8 7 6 7 5 6 9 8 8 10 9 10 11 9 9 9 7 5 4 4 5 7 7 7 7 7 6 7
12 9 10 11 11 10 10 11 11 10 9 9 7 7 8 7 6 8 8 6 4 7 9 9 10 11 7 9 11 9 8 9 9 4 4 5 7 8 8 7 7 6 7 6
12 11 10 11 9 9 9 9 8 8 8 7 6 6 6 7 7 7 8 9 10 10 8 7 10 11 9 12 12 10 10 10 9 7 6 6 6 6 7 8 7 6 7 6
13 13 10 10 9 9 9 8 6 7 7 7 7 8 7 7 8 8 9 9 10 8 9 10 11 12 12 12 10 9 11 12 11 10 9 8 5 6 6 7 8 7 7 6
12 12 13 12 11 9 8 6 6 9 8 7 5 6 6 4 3 3 5 6 6 9 13 14 15 13 14 14 14 12 13 13 12 12 14 7 5 8 6 7 8 7 6 4
11 11 10 10 9 8 7 6 6 8 8 4 5 5 6 7 6 6 8 7 12 14 14 15 13 11 11 14 14 12 13 13 12 11 11 5 6 4 4 6 4 4 4 4
10 8 6 7 8 9 7 7 7 5 5 4 4 4 6 9 7 7 5 9 10 14 12 10 10 16 15 19 12 12 15 14 11 11 10 11 7 3 1 2 4 4 4 5
9 8 7 6 6 8 7 6 4 5 4 3 4 6 7 6 7 8 8 11 9 13 10 10 14 18 20 12 12 13 14 11 11 12 13 11 8 6 5 5 5 5 5 6
8 8 7 6 5 4 6 7 5 5 3 4 4 4 6 6 5 6 7 9 11 11 9 10 11 15 15 10 11 11 12 11 12 12 11 13 10 9 8 8 7 7 7 8
7 7 5 3 5 5 6 6 4 6 7 7 7 7 8 6 5 6 7 7 9 9 9 12 12 11 9 10 10 10 10 10 10 10 10 10 10 9 9 9 9 9 8 8
5 6 6 8 6 5 5 5 5 5 6 5 5 6 5 4 5 5 6 8 8 9 8 8 8 8 8 9 10 10 9 10 10 9 10 10 10 9 9 9 9 8 8 8
7 5 4 6 6 5 5 5 5 5 5 4 5 6 6 5 5 6 7 8 7 7 7 7 8 8 7 8 8 9 8 8 10 8 9 9 9 9 9 9 9 8 9 8
Wind_Direction
268 277 242 302 290 247 241 228 229 251 259 285 338 20 351 69 167 203 278 221 209 212 182 178 176 184 183 160 147 154 186 218 228 232 97 100 55 287 309 302 289 287 269 267
293 296 291 271 277 277 276 266 252 261 268 290 351 58 8 360 337 314 300 290 229 212 224 182 185 186 165 159 156 161 202 231 326 287 174 52 23 356 299 264 254 260 283 296
256 351 347 319 241 249 260 260 265 265 279 311 315 334 38 10 333 299 300 330 322 260 243 224 185 168 154 157 147 158 199 185 229 88 116 41 318 294 315 292 282 278 264 267
104 306 272 244 25 353 344 311 298 316 20 18 42 20 353 313 304 342 348 307 298 297 271 230 128 126 124 140 133 163 185 333 265 62 32 328 357 325 275 289 288 275 273 288
143 221 289 309 306 17 41 350 38 40 23 13 29 343 14 58 47 29 9 342 328 332 1 98 127 132 129 120 134 122 102 34 8 347 346 342 320 297 319 303 280 271 259 263
171 221 222 89 97 50 330 188 57 33 15 349 344 341 27 21 9 342 331 324 324 331 331 127 88 97 105 111 113 89 65 41 18 326 356 315 289 329 318 306 286 300 25 28
149 235 294 56 111 94 222 77 57 11 355 354 335 338 355 353 347 341 339 7 9 37 42 51 75 76 68 67 56 42 41 14 359 345 280 287 301 302 292 296 308 298 175 228
145 147 267 130 118 156 59 4 10 351 349 337 324 324 314 315 326 22 343 67 60 65 63 52 44 65 70 61 65 48 19 337 294 293 295 288 285 264 281 305 308 316 113 227
171 205 155 184 47 28 34 358 333 337 344 341 335 330 332 329 343 50 46 73 78 78 72 57 62 69 77 69 51 294 245 261 270 281 289 282 297 331 304 255 270 281 249 206
64 274 184 163 324 72 51 23 355 339 343 355 353 360 332 8 59 62 60 67 78 80 76 78 73 80 104 149 213 259 268 263 258 260 288 322 296 270 255 182 203 251 248 237
212 257 349 72 49 38 23 31 26 9 36 23 7 3 51 67 69 64 67 70 75 83 83 101 148 139 164 222 240 263 270 283 293 323 303 285 280 273 313 298 226 213 224 226
202 73 21 49 56 42 56 49 39 33 56 38 46 57 68 66 71 82 88 90 97 130 162 149 200 233 252 238 244 261 275 290 287 270 261 272 277 298 283 258 266 245 244 224
64 46 33 87 73 77 70 55 54 57 56 64 61 71 81 91 97 110 115 110 101 115 236 249 303 304 290 275 295 301 268 265 263 256 255 271 295 291 298 292 268 261 240 240
46 328 87 82 95 83 85 84 77 75 74 75 80 75 77 82 84 77 69 66 310 333 325 300 288 282 264 260 246 223 232 245 247 250 242 266 281 289 288 289 289 284 244 237
79 72 87 92 91 93 97 99 91 86 85 82 85 94 106 114 111 87 41 2 338 309 300 308 325 314 305 306 265 252 248 247 245 241 226 228 242 247 254 262 269 274 275 262
82 88 94 97 101 102 104 101 102 113 101 67 44 22 12 14 17 8 1 42 6 333 327 322 295 289 292 291 287 284 279 266 248 238 215 231 255 262 265 263 267 265 271 271
113 109 118 117 121 121 100 77 65 56 56 56 46 28 21 8 353 21 0 4 4 322 302 284 276 294 302 297 291 284 283 285 276 254 233 226 245 267 273 267 259 261 268 264
117 124 129 125 122 96 92 81 70 68 62 51 44 44 34 26 6 0 359 345 338 321 305 331 12 350 334 325 319 306 293 289 284 269 258 254 253 266 274 277 264 268 273 268
118 120 112 100 96 85 85 82 69 92 68 46 42 37 30 25 3 356 347 337 322 332 15 357 346 339 333 327 328 329 320 311 290 273 256 237 256 265 270 275 271 266 266 267
114 96 87 77 64 81 79 43 81 73 61 44 30 37 14 357 330 336 318 319 351 28 355 352 345 336 326 332 337 321 313 305 300 305 288 218 239 262 263 268 268 265 260 271
103 104 112 104 97 89 89 79 62 56 56 43 41 27 354 324 9 331 354 351 17 2 356 344 333 334 342 336 323 309 305 299 295 297 291 263 254 248 292 306 326 344 350 355
106 100 100 124 113 100 78 76 79 68 56 32 45 27 351 4 355 360 350 19 355 359 348 335 356 5 346 331 322 338 336 312 293 294 280 272 238 177 331 354 356 10 353 348
113 110 98 83 102 107 98 76 116 89 53 15 65 35 11 351 359 351 356 4 356 356 344 356 6 2 344 343 348 347 341 347 352 357 4 6 14 32 38 23 16 10 2 357
119 107 105 109 126 92 69 47 28 87 65 22 67 72 11 349 357 8 360 353 357 351 350 0 2 0 347 352 353 356 351 5 1 358 356 4 9 12 15 15 11 9 1 345
108 112 108 135 91 68 54 28 14 30 26 11 19 16 356 6 6 359 348 351 348 356 349 355 357 358 359 355 354 356 353 1 5 356 356 2 1 1 8 11 2 356 348 344
133 99 91 72 67 53 41 19 11 18 6 357 4 354 339 4 8 357 347 345 351 351 351 349 351 359 3 354 352 356 355 356 360 359 358 359 353 2 1 353 350 344 335 333
71 49 107 99 63 45 39 16 14 357 349 24 351 315 327 1 357 356 355 347 348 350 351 349 349 356 1 352 355 354 357 356 350 4 359 354 354 353 345 344 335 335 332 325